Weather History for RPLI - February, 2013

Change the Weather History Date:

Thursday, February 14, 2013

  Actual Average Record
Temperature  
Mean Temperature 76 °F -  
Max Temperature 87 °F - - ()
Min Temperature 66 °F - - ()
Cooling Degree Days 12    
Growing Degree Days 26 (Base 50)    
Moisture  
Dew Point 69 °F    
Average Humidity 68    
Maximum Humidity 100    
Minimum Humidity 47    
Precipitation  
Precipitation 0.00 in - - ()
Sea Level Pressure  
Sea Level Pressure 29.88 in    
Wind  
Wind Speed 4 mph ()    
Max Wind Speed 14 mph    
Max Gust Speed -    
Visibility 6.4 miles    
Events      
T = Trace of Precipitation, MM = Missing Value Source: Averaged Metar Reports

Daily Weather History Graph

Daily Weather History Graph

Search for Another Location

Airport or City:

Trip Planner

Search our weather history database for the weather conditions in past years. The results will help you decide how hot, cold, wet, or windy it might be!

Date:

Astronomy

Feb. 14, 2013 Rise Set
Actual Time 6:25 AM PHT 5:58 PM PHT
Civil Twilight 6:03 AM PHT 6:20 PM PHT
Nautical Twilight 5:37 AM PHT 6:46 PM PHT
Astronomical Twilight 5:12 AM PHT 7:11 PM PHT
Moon 8:51 AM PHT (2/14) 9:38 PM PHT (2/14)
Length of Visible Light 12h 17m
Length of Day
11h 32m
Waxing Crescent, 17% of the Moon is Illuminated
Feb 14
Waxing Crescent
Feb 18
First Quarter
Feb 26
Full
Mar 5
Last Quarter
Mar 12
New

Hourly Weather History & Observations

Time (PHT) Temp. Heat Index Dew Point Humidity Pressure Visibility Wind Dir Wind Speed Gust Speed Precip Events Conditions
2:00 AM 71 °F - 69 °F 93% 29.88 in 7 mi Calm Calm - -   Scattered Clouds
5:00 AM 68 °F - 67 °F 95% 29.88 in 7 mi Calm Calm - -   Scattered Clouds
6:00 AM 66.2 °F - 66.2 °F 100% 29.89 in 6.2 mi East 2.3 mph - N/A   Partly Cloudy
7:00 AM 66.2 °F - 64.4 °F 94% 29.89 in 6.2 mi East 2.3 mph - N/A   Partly Cloudy
8:00 AM 72 °F - 65 °F 73% 29.92 in 6 mi East 4.5 mph - -   Haze
8:00 AM 71.6 °F - 64.4 °F 78% 29.92 in 6.2 mi East 4.6 mph - N/A   Partly Cloudy
9:00 AM 80.6 °F 83.2 °F 68.0 °F 65% 29.92 in 6.2 mi ESE 2.3 mph - N/A   Partly Cloudy
10:00 AM 86.0 °F 88.2 °F 66.2 °F 51% 29.92 in 6.2 mi SW 2.3 mph - N/A   Partly Cloudy
11:00 AM 86 °F - 69 °F 47% 29.91 in 7 mi West 6.7 mph - -   Haze
11:00 AM 86.0 °F 89.4 °F 68.0 °F 55% 29.92 in 6.2 mi West 6.9 mph - N/A   Partly Cloudy
12:00 PM 86.0 °F 89.4 °F 68.0 °F 55% 29.89 in 6.2 mi WNW 9.2 mph - N/A   Partly Cloudy
1:00 PM 87.8 °F 92.6 °F 69.8 °F 55% 29.86 in 6.2 mi NNW 13.8 mph - N/A   Partly Cloudy
2:00 PM 86 °F - 70 °F 49% 29.85 in 7 mi NNW 13.4 mph - -   Haze
2:00 PM 86.0 °F 90.4 °F 69.8 °F 58% 29.83 in 6.2 mi NNW 13.8 mph - N/A   Partly Cloudy
3:00 PM 87.8 °F 92.6 °F 69.8 °F 55% 29.83 in 6.2 mi NNW 11.5 mph - N/A   Partly Cloudy
4:00 PM 87.8 °F 92.6 °F 69.8 °F 55% 29.83 in 6.2 mi NNW 11.5 mph - N/A   Partly Cloudy
5:00 PM 86 °F - 71 °F 52% 29.83 in 7 mi NNW 11.2 mph - -   Haze
5:00 PM 86.0 °F 91.8 °F 71.6 °F 62% 29.83 in 6.2 mi NNW 11.5 mph - N/A   Partly Cloudy
6:00 PM 82.4 °F 88.2 °F 73.4 °F 74% 29.83 in 6.2 mi NNW 4.6 mph - N/A   Scattered Clouds
8:00 PM 77 °F - 72 °F 80% 29.88 in 7 mi South 2.2 mph - -   Partly Cloudy
11:00 PM 73 °F - 70 °F 89% 29.91 in 6 mi East 4.5 mph - -   Scattered Clouds